STARLINK-30111, 56302

Orbit data source: Space-Track

STARLINK-30111, 56302 is a payload satellite owned by SpaceX/Seattle (US) in LEO that was launched on Wed, 19 Apr 2023 UTC via an FALCON 9 launch vehicle from the Air Force Eastern Test Range (AFETR). Payload-class satellites include a variety of spacecraft equipped with specific instruments for various scientific and technological missions. These include communications satellites like Starlink; space stations such as the ISS; scientific satellites like the Hubble; Earth observation satellites from companies like Planet Labs, Umbra, and HawkEye 360; GPS; miniature CubeSats for education and research; and military/defense satellites.

Loading next visibility...
Identifier
56302, 2023-056S
Orbit
LEO
Country
Flag of USUS
Related business
Manufacturer
SpaceX/Seattle
Mission
Operational Commercial Communications
Bus & Motor
STARLINK V2M, Unknown motor
Mass
730 kg wet, ~700 kg dry
Launch date (UTC)
2023-04-19 (3 years ago)
Launch vehicle
FALCON 9
Launch site
Air Force Eastern Test Range (AFETR)
Object type
Payload
Rocket body
Debris
Shape & HBR
Box + 2 Pan, 17.7 m
Radar Cross Section
33.884 m², Large (>1 m²)

Expand to show TLE details & history
Last TLE update: 1 day ago

TLE from 1 day ago
0 STARLINK-30111
1 56302U 23056S   25348.58960657  .00000177  00000-0  28148-4 0  9992
2 56302  43.0035 312.5279 0001135 277.1086  82.9627 15.02531821147287
Epoch: 2025-12-14T14:09Z
TLE epoch observation values (Epoch: 2025-12-14T14:09:02.007Z)
Latitude
-0.00004°
Longitude
16.76914°
Altitude
558.774 km
Speed
7.584 km/s
True Right ascension
20h 50m 06s
True Declination
0° 00' 00"
Sunlit
Object was in daylight at epoch
Visualization orbit readout
Latitude
Unknown
Longitude
Unknown
Altitude
Unknown
Speed
Unknown
Apparent Right ascension
Unknown
Apparent Declination
Unknown
Sunlit
N/A
Visualization observer readout
Local Sidereal Time
13:19:01
Azimuth
Unknown
Elevation
Unknown
Doppler factor
Unknown
Orbital elements
Apogee altitude
561.803 km
Perigee altitude
560.228 km
Semi-major axis
6,939.153 km
Eccentricity
0.00011
Inclination
43.0035°
RAAN
312.5279°
Arg. of periapsis
277.1086°
True anomaly
82.97561°
Mean anomaly
82.9627°
Eccentric anomaly
82.96915°
Mean motion
3.75477 °/min
Orbital period
95.88 mins
BSTAR
0.000028148
Loading maneuver chart data...
Computing Atmospheric mass density...
Loading historical data...
Loading historical data...
Loading historical data...
Loading historical data...
Loading historical data...
Loading historical data...
Loading historical data...

Documentation

Showing up to 5 results
|